Weather History for Williston, ND

Change the Weather History Date:

Sunday, November 10, 2013

  Actual Average Record
Temperature  
Mean Temperature 24 °F 30 °F  
Max Temperature 30 °F 41 °F 66 °F (1961)
Min Temperature 17 °F 19 °F -14 °F (1911)
Degree Days  
Heating Degree Days 41 35  
Month to date heating degree days 320 322  
Since 1 July heating degree days 1229 1349  
Cooling Degree Days 0 0  
Month to date cooling degree days 0 0  
Year to date cooling degree days 405 456  
Moisture  
Dew Point 13 °F    
Average Humidity 66    
Maximum Humidity 92    
Minimum Humidity 40    
Precipitation  
Precipitation 0.00 in 0.03 in 0.46 in (2012)
Month to date precipitation 0.12 0.26  
Year to date precipitation 19.98 13.36  
Sea Level Pressure  
Sea Level Pressure 30.34 in    
Wind  
Wind Speed 10 mph (North)    
Max Wind Speed 25 mph    
Max Gust Speed 30 mph    
Visibility 10 miles    
Events      
T = Trace of Precipitation, MM = Missing Value Source: NWS Daily Summary

Daily Weather History Graph

Daily Weather History Graph

Search for Another Location

Airport:

Trip Planner

Search our weather history database for the weather conditions in past years. The results will help you decide how hot, cold, wet, or windy it might be!

Date:

Astronomy

Nov. 10, 2013 Rise Set
Actual Time 7:54 AM CST 5:22 PM CST
Civil Twilight 7:20 AM CST 5:55 PM CST
Nautical Twilight 6:43 AM CST 6:33 PM CST
Astronomical Twilight 6:06 AM CST 7:09 PM CST
Moon 1:58 PM CST (11/10) 12:03 AM CST (11/10)
Length of Visible Light 10h 34m
Length of Day
9h 27m
First Quarter, 56% of the Moon is Illuminated
Nov 10
First Quarter
Nov 17
Full
Nov 25
Last Quarter
Dec 2
New
Dec 9
First Quarter

Hourly Weather History & Observations

Time (CST) Temp. Windchill Dew Point Humidity Pressure Visibility Wind Dir Wind Speed Gust Speed Precip Events Conditions
12:52 AM 21.9 °F 14.5 °F 19.0 °F 89% 30.27 in 10.0 mi SSW 5.8 mph - N/A   Clear
1:52 AM 19.9 °F 14.9 °F 17.1 °F 89% 30.25 in 10.0 mi South 3.5 mph - N/A   Clear
2:52 AM 21.9 °F - 19.0 °F 89% 30.22 in 10.0 mi Calm Calm - N/A   Partly Cloudy
3:52 AM 24.1 °F - 21.0 °F 88% 30.21 in 10.0 mi Calm Calm - N/A   Clear
4:52 AM 25.0 °F - 21.9 °F 88% 30.18 in 10.0 mi Calm Calm - N/A   Clear
5:52 AM 26.1 °F - 23.0 °F 88% 30.19 in 10.0 mi Calm Calm - N/A   Clear
6:52 AM 28.9 °F 21.1 °F 24.1 °F 82% 30.22 in 10.0 mi North 8.1 mph - N/A   Clear
7:52 AM 27.0 °F 23.0 °F 24.1 °F 89% 30.22 in 10.0 mi North 3.5 mph - N/A   Clear
8:52 AM 28.0 °F 15.7 °F 24.1 °F 85% 30.25 in 10.0 mi North 17.3 mph - N/A   Mostly Cloudy
9:30 AM 26.6 °F 12.7 °F 23.0 °F 86% 30.19 in 8.0 mi North 20.7 mph 28.8 mph N/A   Overcast
9:52 AM 27.0 °F 15.2 °F 23.0 °F 85% 30.29 in 8.0 mi North 15.0 mph 24.2 mph N/A   Overcast
10:40 AM 28.4 °F 15.4 °F 21.2 °F 74% 30.22 in 10.0 mi North 19.6 mph - N/A   Overcast
10:52 AM 28.0 °F 16.1 °F 21.9 °F 78% 30.33 in 10.0 mi North 16.1 mph - N/A   Overcast
11:45 AM 28.4 °F 15.8 °F 19.4 °F 69% 30.24 in 10.0 mi North 18.4 mph - N/A   Overcast
11:52 AM 28.0 °F 15.7 °F 18.0 °F 66% 30.34 in 10.0 mi North 17.3 mph 25.3 mph N/A   Mostly Cloudy
12:37 PM 28.4 °F 15.8 °F 8.6 °F 43% 30.25 in 10.0 mi North 18.4 mph 26.5 mph N/A   Mostly Cloudy
12:52 PM 27.0 °F 13.9 °F 9.0 °F 47% 30.35 in 10.0 mi North 18.4 mph 24.2 mph N/A   Partly Cloudy
1:52 PM 25.0 °F 10.9 °F 3.0 °F 39% 30.37 in 10.0 mi North 19.6 mph - N/A   Mostly Cloudy
2:52 PM 23.0 °F 11.1 °F 5.0 °F 46% 30.39 in 10.0 mi North 12.7 mph - N/A   Overcast
3:52 PM 21.9 °F 9.2 °F 3.9 °F 46% 30.41 in 10.0 mi North 13.8 mph - N/A   Overcast
4:52 PM 21.0 °F 8.6 °F 1.9 °F 44% 30.42 in 10.0 mi North 12.7 mph - N/A   Overcast
5:52 PM 19.0 °F 6.8 °F 3.0 °F 50% 30.45 in 10.0 mi North 11.5 mph - N/A   Overcast
6:52 PM 19.9 °F 7.9 °F 1.9 °F 46% 30.46 in 10.0 mi NNE 11.5 mph - N/A   Overcast
7:52 PM 19.0 °F 6.1 °F 1.9 °F 47% 30.48 in 10.0 mi North 12.7 mph - N/A   Overcast
8:52 PM 19.0 °F 6.1 °F -0.0 °F 43% 30.50 in 10.0 mi NNE 12.7 mph - N/A   Overcast
9:52 PM 19.0 °F 7.5 °F 1.0 °F 46% 30.52 in 10.0 mi NNE 10.4 mph - N/A   Overcast
10:52 PM 18.0 °F 4.8 °F -2.0 °F 41% 30.53 in 10.0 mi NNE 12.7 mph - N/A   Overcast
11:52 PM 17.1 °F 5.0 °F 3.0 °F 54% 30.54 in 10.0 mi NNE 10.4 mph - N/A   Overcast